星链-4461 (STARLINK-4461 )

导读

STARLINK-4461是美国太空探索技术公司(SpaceX)星链(Starlink)卫星星座中的一颗卫星,于2022年8月12日成功发射。作为星链互联网星座的组成部分,它主要服务于全球低延迟宽带互联网覆盖,尤其为偏远地区等网络匮乏区域提供网络接入服务,目前在轨运行,助力SpaceX构建全球卫星互联网络。

基本信息
目录编号:
53503
目录名称:
STARLINK-4461
国际标识:
2022-099AQ
轨道中心:
EARTH
卫星名称:
星链-4461
卫星全名:
星链-4461 (STARLINK-4461 )
卫星状态:
已陨落 最后检测时间 2026-04-04
发射日期:
2022-08-12 UTC
国别 :
美国 (US)
星等 :
--
该卫星已列入 空间交会检测服务 Space Conjunction Data Service (SCDS) ,当前飞行风险评估等级: 无高风险
轨道信息
数据来源 国际轨道数据
星历时间: 2026-04-04T14:20:56+0800
轨道信息已过期161天
半长轴: 6533.496km
偏心率: 0.0009762
轨道倾角: 97.623°
近地点辐角 266.493°
升交点赤经 245.506°
平近点角 93.525°
近地点: 148.981km
远地点: 161.737km
周期: 87.595分钟
每日圈数: 16.43934
详细信息
固有亮度:
5
最大亮度:
2.5
卫星平台:
Starlink v1.5
覆盖范围:
全球
运营商:
太空探索技术公司
运营商所在国:
美国
制造商(研发单位):
太空探索技术公司
制造商所在国:
美国
使用方式:
暂无
卫星简介
星链(Starlink)计划是由太空探索技术公司(SpaceX)提出的一个巨型低轨卫星互联网星座项目,计划在2019年至2024年间在太空搭建由约1.2万颗卫星组成的“星链”网络,其中1584颗将部署在地球上空550千米处的近地轨道,并从2020年开始工作。该卫星仍在工作。
与全量物体交会距离演化趋势
与全量物体交会风险概率演化趋势